[[{"header":{"parameterUnit":"m.s-1","parameterCategory":1,"la1":30.2991,"la2":30.254,"lo1":-89.0895,"lo2":-89.0444,"dy":0.0017,"dx":0.0017,"nx":28,"ny":28,"refTime":"2024-06-20T09:00:00:Z","depth":0,"parameterNumber":2,"parameterNumberName":"U-component_of_WINDS"},"data":[0,0,0,0,0,0,0,0,0,0,0,0,0,0,0,0,0,0,0,0,0,0,0,0,0,0,0,0,0,0,0,0,0,0,0,0,0,0,0,0,0,0,0,0,0,0,0,0,0,0,0,0,0,0,0,0,0,0,-2.0151,-2.015,0,-2.0011,-2.001,-2.0008,-1.9856,-1.9854,-1.9852,-1.985,-1.9706,-1.9705,-1.9703,0,0,0,0,0,0,0,0,0,0,0,0,0,-2.0287,-2.0285,-2.0151,-2.0149,-2.0148,-2.0012,-2.001,-2.0008,-1.9857,-1.9854,-1.9851,-1.9849,-1.9707,-1.9705,-1.9703,0,0,0,0,0,0,0,0,0,0,0,0,0,-2.0196,-2.0285,-2.0151,-2.0056,-2.0046,-2.0012,-2.001,-2.0007,-1.9857,-1.9854,-1.9851,-1.9848,-1.9708,-1.9705,-1.9702,-1.9751,0,0,-1.9694,-1.9693,0,0,0,0,0,0,0,0,-2.0201,-2.0191,-2.0072,-2.0062,-2.0051,-1.9948,-2.0005,-1.9921,-1.9858,-1.9929,-1.985,-1.9846,-1.9789,-1.978,-1.9761,-1.9745,-1.9738,-1.9694,-1.9692,-1.9691,-1.969,0,0,0,0,0,0,0,-2.0208,-2.0196,-2.0096,-2.007,-2.0058,-2.002,-2.0003,-1.9988,-1.9879,-1.9922,-1.9911,-1.9897,-1.9783,-1.9764,-1.9756,-1.9736,-1.9694,-1.9692,-1.969,-1.9689,-1.9753,-1.9757,0,0,0,0,0,0,-2.0229,-2.0203,-2.01,-2.0091,-2.012,-2.002,-2.0002,-1.9984,-1.9879,-1.986,-1.99,-1.989,-1.977,-1.976,-1.9751,-1.9801,-1.9691,-1.9689,-1.9687,-1.975,-1.9754,-1.9758,0,0,0,0,0,0,-2.0232,-2.0221,-2.0106,-2.0144,-2.0126,-2.0021,-2.0003,-1.9983,-1.9964,-1.9862,-1.9841,-1.99,-1.9767,-1.9754,-1.9752,-1.9794,-1.9688,-1.9685,-1.9746,-1.9751,-1.9756,-1.9903,0,0,0,0,0,0,-2.0237,-2.0223,-2.0241,-2.0145,-2.0125,-2.0111,-2.0006,-1.9983,-1.9959,-1.9946,-1.9856,-1.9838,-1.9763,-1.9757,-1.975,-1.9788,-1.9683,-1.9742,-1.9749,-1.9754,-1.9894,-1.9912,-1.9928,0,0,0,0,0,-2.0242,-2.0287,-2.0242,-2.0231,-2.0145,-2.0113,-2.0101,-2.0014,-1.9963,-1.998,-1.9915,-1.9841,-1.9791,-1.9758,-1.9749,-1.9787,-1.9739,-1.9747,-1.9754,-1.9886,-1.9909,-1.9928,0,0,0,0,0,0,-2.039,-2.0273,-2.0222,-2.0238,-2.0187,-2.0088,-2.0106,-2.0041,-2.0003,-1.9991,-1.9884,-1.9866,-1.9876,-1.9831,-1.9797,-1.9829,-1.9754,-1.976,-1.9858,-1.9879,-1.9895,-1.9906,-1.9681,0,0,0,0,0,-2.0425,-2.0409,-2.0307,-2.0331,-2.0308,-2.0212,-2.0195,-2.0132,-2.0075,-2.0052,-1.9987,-1.9934,-1.9906,-1.9889,-1.9858,-1.9886,-1.9865,-1.9908,-1.9925,-1.994,-1.9946,-1.9958,-1.9976,-1.9782,-1.9782,-1.9782,0,0,-2.0496,-2.043,-2.0426,-2.0359,-2.0312,-2.0298,-2.0195,-2.0184,-2.0173,-2.0051,-2.0045,-1.9995,-1.9929,-1.9943,-1.9945,-1.9905,-1.9995,-1.9949,-1.9962,-1.996,-1.9968,-1.9986,-2.0003,-1.9787,-1.9786,-1.9786,0,0,-2.0618,-2.0567,-2.0581,-2.0536,-2.0466,-2.0402,-2.0406,-2.0317,-2.0279,-2.0272,-2.018,-2.0165,-2.0119,-2.0075,-2.0048,-2.0155,-2.0086,-2.0147,-2.0237,-2.025,-2.0265,-2.0278,-2.0317,-2.0332,-2.0154,-2.0154,-2.0155,0,-2.0715,-2.0691,-2.0597,-2.0592,-2.0566,-2.0454,-2.0468,-2.0429,-2.0353,-2.0337,-2.0294,-2.0234,-2.0181,-2.0184,-2.021,-2.0191,-2.0192,-2.0157,-2.0271,-2.0283,-2.0293,-2.0329,-2.0344,-2.0162,-2.0161,-2.0161,-2.016,0,-2.0814,-2.0799,-2.0818,-2.0748,-2.0723,-2.0729,-2.0635,-2.0622,-2.0562,-2.0502,-2.0496,-2.043,-2.0383,-2.0379,-2.0319,-2.0373,-2.035,-2.029,-2.0213,-2.0322,-2.0353,-2.0366,-2.0174,-2.0171,-2.0169,-2.0167,0,0,-2.1026,-2.0904,-2.0913,-2.0879,-2.0794,-2.0781,-2.0781,-2.0735,-2.0726,-2.0677,-2.0675,-2.0639,-2.0583,-2.0551,-2.0486,-2.0498,-2.0588,-2.0436,-2.0432,-2.0467,-2.0643,-2.0689,-2.0706,-2.0541,-2.0544,-2.0545,-2.0649,0,-2.1134,-2.1127,-2.1042,-2.106,-2.1044,-2.0939,-2.0939,-2.0887,-2.0832,-2.0811,-2.0749,-2.0725,-2.0653,-2.0633,-2.064,-2.0576,-2.0622,-2.0567,-2.0538,-2.0538,-2.0559,-2.0723,-2.0771,-2.0872,-2.066,-2.0662,-2.0664,0,-2.1258,-2.1218,-2.1234,-2.1149,-2.1139,-2.1141,-2.1093,-2.1074,-2.1013,-2.0972,-2.0938,-2.0864,-2.0858,-2.0786,-2.0776,-2.0741,-2.0724,-2.0691,-2.0692,-2.0687,-2.0608,-2.0722,-2.0902,-2.0918,-2.0682,-2.0681,-2.0679,0,-2.1412,-2.1361,-2.1364,-2.1339,-2.124,-2.1244,-2.1203,-2.1138,-2.1117,-2.1075,-2.1059,-2.1018,-2.0995,-2.0964,-2.0881,-2.0836,-2.0881,-2.0802,-2.0847,-2.085,-2.0862,-2.0862,-2.1042,-2.0851,-2.0851,-2.0851,-2.085,0,-2.1542,-2.1556,-2.1432,-2.1434,-2.1447,-2.135,-2.1365,-2.1314,-2.1258,-2.1248,-2.1154,-2.1147,-2.1037,-2.1018,-2.0953,-2.0956,-2.0946,-2.0913,-2.0895,-2.0921,-2.0926,-2.0909,-2.09,-2.0854,-2.0854,-2.0853,-2.0852,0,-2.1715,-2.1633,-2.1629,-2.1536,-2.1513,-2.1527,-2.1447,-2.1445,-2.1384,-2.1373,-2.1365,-2.1269,-2.1241,-2.1156,-2.1106,-2.1063,-2.1085,-2.1051,-2.1106,-2.1095,-2.1145,-2.1142,-2.1321,-2.134,-2.1137,-2.1139,-2.1141,0,-2.1804,-2.1812,-2.172,-2.1707,-2.167,-2.165,-2.1627,-2.1532,-2.1513,-2.1445,-2.1451,-2.1416,-2.1383,-2.1344,-2.127,-2.1232,-2.1197,-2.1262,-2.1191,-2.1217,-2.1199,-2.1199,-2.12,-2.1278,-2.1281,-2.1283,-2.1285,0,-2.1969,-2.1928,-2.19,-2.1857,-2.1833,-2.1795,-2.1751,-2.1746,-2.164,-2.1623,-2.1593,-2.1568,-2.1518,-2.1484,-2.1435,-2.1392,-2.1321,-2.1308,-2.1317,-2.1344,-2.1375,-2.1359,-2.1149,-2.1305,-2.1303,-2.1301,-2.13,-2.1299,-2.2103,-2.2106,-2.2042,-2.2013,-2.197,-2.1932,-2.1926,-2.1865,-2.1839,-2.1791,-2.1736,-2.1713,-2.1652,-2.1578,-2.1541,-2.1522,-2.1484,-2.1496,-2.1499,-2.1504,-2.1516,-2.1378,-2.1512,-2.1511,-2.1511,-2.151,-2.151,0,-2.2264,-2.2218,-2.2193,-2.2135,-2.2113,-2.2048,-2.1997,-2.1983,-2.1964,-2.1913,-2.1883,-2.1849,-2.1817,-2.1741,-2.1701,-2.17,-2.1667,-2.1693,-2.1692,-2.1684,-2.1552,-2.1549,-2.1721,-2.1721,-2.172,-2.172,-2.172,-2.172,-2.2346,-2.2347,-2.2299,-2.2279,-2.2231,-2.2209,-2.2185,-2.215,-2.2108,-2.2076,-2.2048,-2.1999,-2.1938,-2.1893,-2.186,-2.1838,-2.1828,-2.1865,-2.1834,-2.1713,-2.1693,-2.1674,-2.167,-2.1864,-2.1864,-2.1966,-2.1967,-2.1968]},{"header":{"parameterUnit":"m.s-1","parameterCategory":1,"la1":30.2991,"la2":30.254,"lo1":-89.0895,"lo2":-89.0444,"dy":0.0017,"dx":0.0017,"nx":28,"ny":28,"refTime":"2024-06-20T09:00:00:Z","depth":0,"parameterNumber":3,"parameterNumberName":"V-component_of_WINDS"},"data":[0,0,0,0,0,0,0,0,0,0,0,0,0,0,0,0,0,0,0,0,0,0,0,0,0,0,0,0,0,0,0,0,0,0,0,0,0,0,0,0,0,0,0,0,0,0,0,0,0,0,0,0,0,0,0,0,0,0,1.5902,1.5901,0,1.5843,1.5842,1.5842,1.584,1.5841,1.5842,1.5842,1.5775,1.5772,1.577,0,0,0,0,0,0,0,0,0,0,0,0,0,1.6007,1.6005,1.5902,1.5901,1.59,1.5843,1.5842,1.5842,1.584,1.5841,1.5842,1.5843,1.5776,1.5773,1.577,0,0,0,0,0,0,0,0,0,0,0,0,0,1.5956,1.6005,1.5902,1.5893,1.5892,1.5843,1.5842,1.5841,1.584,1.5841,1.5842,1.5843,1.5777,1.5773,1.5769,1.5724,0,0,1.5758,1.5756,0,0,0,0,0,0,0,0,1.5959,1.5952,1.5895,1.5893,1.5892,1.585,1.5855,1.5802,1.584,1.5859,1.5842,1.5844,1.5798,1.5793,1.5779,1.5721,1.5718,1.5757,1.5755,1.5754,1.5752,0,0,0,0,0,0,0,1.5963,1.5955,1.5878,1.5894,1.5892,1.589,1.5884,1.5845,1.5823,1.5858,1.5857,1.5851,1.5798,1.5783,1.5778,1.5717,1.5758,1.5754,1.5752,1.575,1.5619,1.5618,0,0,0,0,0,0,1.5969,1.5958,1.588,1.5877,1.5929,1.5887,1.5881,1.5862,1.5824,1.5819,1.585,1.5851,1.5789,1.5782,1.5775,1.572,1.5754,1.575,1.5748,1.562,1.5619,1.5617,0,0,0,0,0,0,1.5971,1.5962,1.5883,1.5917,1.5907,1.5884,1.5864,1.5861,1.5846,1.5818,1.5813,1.5839,1.5789,1.5781,1.5737,1.5717,1.5748,1.5745,1.5621,1.562,1.5618,1.5608,0,0,0,0,0,0,1.5974,1.5963,1.5946,1.5917,1.5905,1.5847,1.5863,1.5859,1.584,1.5841,1.5806,1.5802,1.579,1.5743,1.5734,1.5713,1.5742,1.5623,1.5621,1.5618,1.561,1.5606,1.5603,0,0,0,0,0,1.5978,1.5944,1.5945,1.5936,1.5884,1.5846,1.5839,1.5828,1.5839,1.5821,1.5804,1.5803,1.5722,1.5739,1.5728,1.5706,1.5624,1.5621,1.5619,1.5612,1.5607,1.5603,0,0,0,0,0,0,1.5968,1.594,1.5941,1.5897,1.5874,1.5846,1.5823,1.5823,1.5794,1.5796,1.5781,1.5774,1.5731,1.5714,1.5733,1.566,1.5674,1.5669,1.5672,1.5667,1.5664,1.5668,1.5739,0,0,0,0,0,1.5962,1.5935,1.5911,1.5874,1.5863,1.5845,1.5828,1.5822,1.5797,1.5786,1.5765,1.5739,1.5708,1.5687,1.5657,1.5609,1.5601,1.5588,1.5585,1.5582,1.5577,1.555,1.5544,1.5608,1.5608,1.5608,0,0,1.5946,1.5927,1.5911,1.5872,1.5853,1.5824,1.5837,1.5805,1.5783,1.578,1.5739,1.5723,1.5693,1.5647,1.5626,1.5632,1.5558,1.5578,1.5576,1.5572,1.5547,1.5541,1.5535,1.5606,1.5606,1.5607,0,0,1.5903,1.5887,1.5855,1.5837,1.5811,1.58,1.5792,1.5765,1.5755,1.5714,1.5712,1.5685,1.5631,1.561,1.5592,1.5545,1.5542,1.5535,1.5515,1.5489,1.5484,1.548,1.5462,1.5456,1.5531,1.5531,1.5531,0,1.5886,1.5844,1.5838,1.5807,1.5789,1.579,1.5757,1.5739,1.5703,1.569,1.5699,1.5633,1.5612,1.5562,1.5551,1.5537,1.5527,1.5537,1.5486,1.5481,1.5477,1.546,1.5453,1.553,1.553,1.553,1.553,0,1.5825,1.5796,1.5773,1.5742,1.5722,1.569,1.5677,1.5658,1.5654,1.5642,1.5601,1.5577,1.5542,1.5531,1.5525,1.548,1.5484,1.549,1.5503,1.547,1.5454,1.5447,1.5529,1.5529,1.5529,1.553,0,0,1.577,1.5738,1.573,1.5716,1.5688,1.5665,1.5633,1.5603,1.5586,1.5562,1.5534,1.549,1.5496,1.5476,1.5469,1.5447,1.541,1.5455,1.5454,1.5446,1.5358,1.5353,1.5345,1.541,1.5409,1.5408,1.536,0,1.5723,1.5669,1.5663,1.5614,1.5587,1.5589,1.5561,1.554,1.5529,1.5503,1.549,1.5459,1.5469,1.5457,1.5436,1.5419,1.5392,1.5423,1.5382,1.538,1.5387,1.5337,1.533,1.5286,1.5354,1.5353,1.5352,0,1.5659,1.5637,1.5586,1.5564,1.5553,1.5528,1.55,1.5476,1.5453,1.5446,1.5426,1.5422,1.5388,1.5406,1.5358,1.5379,1.5362,1.5352,1.535,1.5343,1.5362,1.5327,1.5272,1.5264,1.5342,1.5342,1.5343,0,1.5623,1.558,1.5545,1.5533,1.5507,1.5489,1.5477,1.5455,1.5438,1.5413,1.5401,1.5372,1.5355,1.5332,1.5321,1.5334,1.5273,1.5289,1.5265,1.5265,1.5249,1.525,1.5189,1.5242,1.5242,1.5243,1.5243,0,1.557,1.5538,1.5528,1.5506,1.5471,1.5465,1.5429,1.5418,1.5399,1.5373,1.5373,1.5348,1.5336,1.5309,1.53,1.5262,1.5254,1.5246,1.5244,1.5245,1.5246,1.5232,1.5234,1.5241,1.5241,1.5241,1.5242,0,1.5522,1.5515,1.5476,1.5456,1.545,1.5424,1.5406,1.5384,1.5375,1.5342,1.5334,1.5318,1.5287,1.5275,1.5236,1.523,1.5185,1.5186,1.5193,1.5192,1.5168,1.517,1.5093,1.5083,1.5145,1.5145,1.5144,0,1.5487,1.5464,1.5442,1.5427,1.5415,1.5389,1.5372,1.5366,1.5348,1.5322,1.5302,1.5273,1.5248,1.5198,1.5181,1.5152,1.515,1.5126,1.5145,1.5148,1.5148,1.5149,1.5146,1.5121,1.5121,1.512,1.512,0,1.5426,1.5425,1.5402,1.5378,1.5359,1.5339,1.5319,1.5306,1.5297,1.5277,1.5247,1.5228,1.519,1.516,1.513,1.5115,1.5115,1.5115,1.5107,1.5107,1.5112,1.5107,1.5181,1.5115,1.5116,1.5116,1.5116,1.5116,1.5383,1.5362,1.5345,1.5319,1.5305,1.5288,1.5267,1.5256,1.5232,1.5202,1.52,1.5168,1.5146,1.5107,1.5091,1.5065,1.5071,1.506,1.5057,1.5054,1.5052,1.5119,1.5059,1.5059,1.506,1.506,1.506,0,1.532,1.531,1.5288,1.5262,1.5242,1.5249,1.5228,1.521,1.5183,1.5164,1.5141,1.5107,1.5078,1.5061,1.5032,1.5014,1.5013,1.5006,1.5006,1.5002,1.5048,1.5057,1.5007,1.5007,1.5007,1.5007,1.5007,1.5007,1.5285,1.5251,1.5248,1.5206,1.5196,1.5166,1.5154,1.5138,1.5123,1.5086,1.5063,1.5054,1.5035,1.5006,1.4979,1.4975,1.4963,1.4956,1.4951,1.4994,1.4999,1.5004,1.5012,1.4954,1.4954,1.4907,1.4907,1.4907]}]]